Simultaneous Nadir Overpasses (SNOs) Predictions

Prediction of SNOs between GOES-15 and TERRA Satellite Orbit:

Table of predicted SNOs for the next 14.0 days since TLE Epoch: 3/21/2025
Index Date Time (GOES-15) GOES-15 Lat,Lon TERRA Lat,Lon Distance(km) Time Diff (sec)
1 03/23/2025 05:12:29 -0.07, 61.30 -0.71, 64.23 333.88 80
2 03/23/2025 17:32:09 0.08, 61.26 -0.27, 59.44 206.13 80
3 03/25/2025 17:10:37 0.08, 61.27 0.62, 64.00 309.32 80
4 03/26/2025 05:30:09 -0.09, 61.32 0.33, 59.23 236.17 80
5 03/28/2025 05:13:56 -0.08, 61.33 -0.62, 63.78 279.78 80
6 03/28/2025 17:33:36 0.09, 61.29 -0.40, 59.00 259.72 80
7 03/30/2025 17:12:02 0.08, 61.30 0.55, 63.56 255.78 80
8 03/31/2025 05:31:34 -0.09, 61.36 0.43, 58.80 290.20 80
9 04/02/2025 05:15:19 -0.10, 61.38 -0.53, 63.36 224.88 80
10 04/02/2025 17:34:59 0.11, 61.34 -0.48, 58.57 314.48 80
11 04/04/2025 17:13:23 0.11, 61.37 0.47, 63.14 200.08 80
